Location: *
(50.9167°S, 179.4000°W)
Time: 21:35:55
(UTC+00:00)

SL-8 Rocket - Pass Details

Date: 03 March 2024
Orbit: 957 x 990 km, 82.9° (Epoch: 16 April)

Event Time Altitude Azimuth Distance (km) Brightness Sun altitude
Exits shadow 14:13:05 51° 266° (W) 1,214 4.2 -26.7°
Maximum altitude 14:13:28 52° 254° (WSW) 1,205 4.3 -26.7°
Drops below altitude 10° 14:19:34 10° 178° (S) 2,735 7.0 -26.1°
Sets 14:22:11 0° 172° (S) 3,685 8.0 -25.9°
